Time,TemperatureF,DewpointF,PressureIn,WindDirection,WindDirectionDegrees,WindSpeedMPH,WindSpeedGustMPH,Humidity,HourlyPrecipIn,Conditions,Clouds,dailyrainin,SoftwareType,DateUTC
2013-01-05 00:00:00,32.7,22.6,29.99,NW,313,3.0,8.0,66,0.00,,,0.00,meteohub,2013-01-05 05:00:00,
2013-01-05 00:01:00,32.7,22.6,29.99,WNW,301,1.0,8.0,66,0.00,,,0.00,meteohub,2013-01-05 05:01:00,
2013-01-05 00:06:00,32.7,22.6,29.99,WNW,282,3.0,8.0,66,0.00,,,0.00,meteohub,2013-01-05 05:06:00,
2013-01-05 00:11:00,32.5,22.8,29.99,WNW,301,3.0,8.0,67,0.00,,,0.00,meteohub,2013-01-05 05:11:00,
2013-01-05 00:16:00,32.5,22.5,29.99,NNW,341,6.0,9.0,66,0.00,,,0.00,meteohub,2013-01-05 05:16:00,
2013-01-05 00:21:00,32.7,22.6,29.99,WNW,298,3.0,10.0,66,0.00,,,0.00,meteohub,2013-01-05 05:21:00,
2013-01-05 00:26:00,32.7,22.6,29.99,NW,322,4.0,10.0,66,0.00,,,0.00,meteohub,2013-01-05 05:26:00,
2013-01-05 00:31:00,32.7,22.6,29.99,NW,311,2.0,7.0,66,0.00,,,0.00,meteohub,2013-01-05 05:31:00,
2013-01-05 00:36:00,32.7,22.6,29.99,NW,319,7.0,9.0,66,0.00,,,0.00,meteohub,2013-01-05 05:36:00,
2013-01-05 00:41:00,32.7,22.6,29.99,NNW,332,3.0,9.0,66,0.00,,,0.00,meteohub,2013-01-05 05:41:00,
2013-01-05 00:46:00,32.5,22.5,29.99,NW,314,5.0,9.0,66,0.00,,,0.00,meteohub,2013-01-05 05:46:00,
2013-01-05 00:51:00,32.5,22.5,29.99,NNW,330,2.0,7.0,66,0.00,,,0.00,meteohub,2013-01-05 05:51:00,
2013-01-05 00:56:00,32.4,22.3,29.99,WNW,297,1.0,7.0,66,0.00,,,0.00,meteohub,2013-01-05 05:56:00,
2013-01-05 01:01:00,32.4,22.3,30.00,North,349,3.0,7.0,66,0.00,,,0.00,meteohub,2013-01-05 06:01:00,
2013-01-05 01:06:00,32.4,22.3,30.00,NNW,342,3.0,6.0,66,0.00,,,0.00,meteohub,2013-01-05 06:06:00,
2013-01-05 01:11:00,32.2,22.1,30.00,NW,326,2.0,6.0,66,0.00,,,0.00,meteohub,2013-01-05 06:11:00,
2013-01-05 01:16:00,32.2,22.1,30.00,NNW,348,2.0,7.0,66,0.00,,,0.00,meteohub,2013-01-05 06:16:00,
2013-01-05 01:21:00,31.8,22.1,30.00,NNW,327,3.0,7.0,67,0.00,,,0.00,meteohub,2013-01-05 06:21:00,
2013-01-05 01:26:00,31.5,22.1,30.01,NW,318,2.0,5.0,68,0.00,,,0.00,meteohub,2013-01-05 06:26:00,
2013-01-05 01:31:00,31.3,21.9,30.01,WNW,301,4.0,5.0,68,0.00,,,0.00,meteohub,2013-01-05 06:31:00,
2013-01-05 01:36:00,31.3,21.9,30.01,WNW,301,2.0,5.0,68,0.00,,,0.00,meteohub,2013-01-05 06:36:00,
2013-01-05 01:42:00,31.5,22.1,30.01,WNW,290,4.0,8.0,68,0.00,,,0.00,meteohub,2013-01-05 06:42:00,
2013-01-05 01:47:00,31.6,21.9,30.01,NNW,338,5.0,9.0,67,0.00,,,0.00,meteohub,2013-01-05 06:47:00,
2013-01-05 01:51:00,31.8,21.7,30.01,NW,320,4.0,9.0,66,0.00,,,0.00,meteohub,2013-01-05 06:51:00,
2013-01-05 01:57:00,32.2,22.1,30.02,NW,313,6.0,8.0,66,0.00,,,0.00,meteohub,2013-01-05 06:57:00,
2013-01-05 02:02:00,32.5,22.1,30.02,NNW,332,2.0,9.0,65,0.00,,,0.00,meteohub,2013-01-05 07:02:00,
2013-01-05 02:07:00,32.7,21.9,30.02,NW,314,6.0,9.0,64,0.00,,,0.00,meteohub,2013-01-05 07:07:00,
2013-01-05 02:12:00,32.9,22.1,30.02,NW,320,6.0,8.0,64,0.00,,,0.00,meteohub,2013-01-05 07:12:00,
2013-01-05 02:17:00,33.1,22.3,30.03,WNW,289,3.0,8.0,64,0.00,,,0.00,meteohub,2013-01-05 07:17:00,
2013-01-05 02:22:00,33.3,21.7,30.03,NW,306,1.0,8.0,62,0.00,,,0.00,meteohub,2013-01-05 07:22:00,
2013-01-05 02:27:00,33.3,22.1,30.03,WNW,297,4.0,8.0,63,0.00,,,0.00,meteohub,2013-01-05 07:27:00,
2013-01-05 02:32:00,33.3,22.1,30.03,NW,311,3.0,8.0,63,0.00,,,0.00,meteohub,2013-01-05 07:32:00,
2013-01-05 02:37:00,33.4,21.7,30.03,NW,318,3.0,10.0,62,0.00,,,0.00,meteohub,2013-01-05 07:37:00,
2013-01-05 02:42:00,33.4,21.7,30.04,NNW,330,5.0,11.0,62,0.00,,,0.00,meteohub,2013-01-05 07:42:00,
2013-01-05 02:47:00,33.4,21.7,30.04,NW,312,6.0,11.0,62,0.00,,,0.00,meteohub,2013-01-05 07:47:00,
2013-01-05 02:52:00,33.6,21.6,30.04,WNW,303,8.0,12.0,61,0.00,,,0.00,meteohub,2013-01-05 07:52:00,
2013-01-05 02:57:00,33.6,21.6,30.04,WNW,302,7.0,13.0,61,0.00,,,0.00,meteohub,2013-01-05 07:57:00,
2013-01-05 03:02:00,33.6,21.6,30.04,North,350,6.0,13.0,61,0.00,,,0.00,meteohub,2013-01-05 08:02:00,
2013-01-05 03:07:00,33.6,21.6,30.04,NW,326,4.0,14.0,61,0.00,,,0.00,meteohub,2013-01-05 08:07:00,
2013-01-05 03:12:00,33.6,21.6,30.05,NNW,335,5.0,14.0,61,0.00,,,0.00,meteohub,2013-01-05 08:12:00,
2013-01-05 03:17:00,33.6,21.6,30.05,WNW,291,6.0,14.0,61,0.00,,,0.00,meteohub,2013-01-05 08:17:00,
2013-01-05 03:22:00,33.4,21.4,30.05,WNW,288,4.0,14.0,61,0.00,,,0.00,meteohub,2013-01-05 08:22:00,
2013-01-05 03:27:00,33.4,21.7,30.06,NW,324,4.0,12.0,62,0.00,,,0.00,meteohub,2013-01-05 08:27:00,
2013-01-05 03:32:00,33.3,21.7,30.06,NW,326,7.0,11.0,62,0.00,,,0.00,meteohub,2013-01-05 08:32:00,
2013-01-05 03:37:00,33.3,21.7,30.06,WNW,303,8.0,10.0,62,0.00,,,0.00,meteohub,2013-01-05 08:37:00,
2013-01-05 03:42:00,33.3,21.7,30.06,NW,310,3.0,10.0,62,0.00,,,0.00,meteohub,2013-01-05 08:42:00,
2013-01-05 03:47:00,33.1,21.6,30.06,NW,317,3.0,9.0,62,0.00,,,0.00,meteohub,2013-01-05 08:47:00,
2013-01-05 03:52:00,32.7,21.6,30.07,NW,314,2.0,9.0,63,0.00,,,0.00,meteohub,2013-01-05 08:52:00,
2013-01-05 03:57:00,32.5,21.4,30.06,NW,322,6.0,9.0,63,0.00,,,0.00,meteohub,2013-01-05 08:57:00,
2013-01-05 04:02:00,32.5,21.7,30.06,NW,319,2.0,9.0,64,0.00,,,0.00,meteohub,2013-01-05 09:02:00,
2013-01-05 04:07:00,32.5,21.7,30.06,NW,308,4.0,8.0,64,0.00,,,0.00,meteohub,2013-01-05 09:07:00,
2013-01-05 04:12:00,32.5,21.7,30.06,NW,317,5.0,9.0,64,0.00,,,0.00,meteohub,2013-01-05 09:12:00,
2013-01-05 04:17:00,32.5,21.7,30.06,North,349,4.0,10.0,64,0.00,,,0.00,meteohub,2013-01-05 09:17:00,
2013-01-05 04:22:00,32.7,21.9,30.07,WNW,301,5.0,10.0,64,0.00,,,0.00,meteohub,2013-01-05 09:22:00,
2013-01-05 04:27:00,32.7,21.9,30.07,NNW,339,5.0,10.0,64,0.00,,,0.00,meteohub,2013-01-05 09:27:00,
2013-01-05 04:32:00,32.9,22.1,30.07,NNW,334,6.0,12.0,64,0.00,,,0.00,meteohub,2013-01-05 09:32:00,
2013-01-05 04:37:00,32.9,22.1,30.08,NW,314,5.0,12.0,64,0.00,,,0.00,meteohub,2013-01-05 09:37:00,
2013-01-05 04:42:00,33.1,21.9,30.08,NNW,327,5.0,12.0,63,0.00,,,0.00,meteohub,2013-01-05 09:42:00,
2013-01-05 04:47:00,33.1,21.9,30.08,NW,321,2.0,11.0,63,0.00,,,0.00,meteohub,2013-01-05 09:47:00,
2013-01-05 04:52:00,32.7,21.9,30.08,NW,318,2.0,11.0,64,0.00,,,0.00,meteohub,2013-01-05 09:52:00,
2013-01-05 04:57:00,32.5,22.1,30.09,NW,310,2.0,7.0,65,0.00,,,0.00,meteohub,2013-01-05 09:57:00,
2013-01-05 05:02:00,32.2,22.1,30.09,NW,310,0.0,6.0,66,0.00,,,0.00,meteohub,2013-01-05 10:02:00,
2013-01-05 05:07:00,31.6,21.9,30.09,NW,310,0.0,4.0,67,0.00,,,0.00,meteohub,2013-01-05 10:07:00,
2013-01-05 05:12:00,31.3,21.9,30.09,NW,309,0.0,3.0,68,0.00,,,0.00,meteohub,2013-01-05 10:12:00,
2013-01-05 05:17:00,30.7,21.7,30.09,NW,309,0.0,2.0,69,0.00,,,0.00,meteohub,2013-01-05 10:17:00,
2013-01-05 05:22:00,30.2,21.6,30.10,NW,309,0.0,2.0,70,0.00,,,0.00,meteohub,2013-01-05 10:22:00,
2013-01-05 05:27:00,29.8,21.6,30.10,WNW,289,3.0,3.0,71,0.00,,,0.00,meteohub,2013-01-05 10:27:00,
2013-01-05 05:32:00,29.8,21.6,30.10,NNW,348,0.0,3.0,71,0.00,,,0.00,meteohub,2013-01-05 10:32:00,
2013-01-05 05:37:00,30.0,22.1,30.11,WNW,295,1.0,4.0,72,0.00,,,0.00,meteohub,2013-01-05 10:37:00,
2013-01-05 05:42:00,30.0,21.7,30.11,North,359,1.0,4.0,71,0.00,,,0.00,meteohub,2013-01-05 10:42:00,
2013-01-05 05:47:00,30.2,21.9,30.12,NNW,330,3.0,3.0,71,0.00,,,0.00,meteohub,2013-01-05 10:47:00,
2013-01-05 05:52:00,30.6,21.9,30.12,NNW,328,2.0,5.0,70,0.00,,,0.00,meteohub,2013-01-05 10:52:00,
2013-01-05 05:57:00,30.7,21.7,30.12,NNW,348,2.0,5.0,69,0.00,,,0.00,meteohub,2013-01-05 10:57:00,
2013-01-05 06:02:00,31.1,21.7,30.13,NW,320,2.0,6.0,68,0.00,,,0.00,meteohub,2013-01-05 11:02:00,
2013-01-05 06:07:00,31.5,21.7,30.13,NW,323,1.0,6.0,67,0.00,,,0.00,meteohub,2013-01-05 11:07:00,
2013-01-05 06:12:00,31.5,21.4,30.13,WNW,287,2.0,6.0,66,0.00,,,0.00,meteohub,2013-01-05 11:12:00,
2013-01-05 06:17:00,31.5,21.7,30.13,NW,325,1.0,6.0,67,0.00,,,0.00,meteohub,2013-01-05 11:17:00,
2013-01-05 06:22:00,31.5,21.4,30.13,NNW,335,0.0,7.0,66,0.00,,,0.00,meteohub,2013-01-05 11:22:00,
2013-01-05 06:27:00,31.5,21.4,30.13,North,354,0.0,7.0,66,0.00,,,0.00,meteohub,2013-01-05 11:27:00,
2013-01-05 06:32:00,31.5,21.4,30.14,WNW,302,1.0,6.0,66,0.00,,,0.00,meteohub,2013-01-05 11:32:00,
2013-01-05 06:37:00,31.5,21.4,30.14,NNW,335,3.0,8.0,66,0.00,,,0.00,meteohub,2013-01-05 11:37:00,
2013-01-05 06:42:00,31.5,21.4,30.14,WNW,303,2.0,8.0,66,0.00,,,0.00,meteohub,2013-01-05 11:42:00,
2013-01-05 06:47:00,31.5,21.4,30.15,NW,305,0.0,8.0,66,0.00,,,0.00,meteohub,2013-01-05 11:47:00,
2013-01-05 06:52:00,31.5,21.7,30.15,North,11,3.0,6.0,67,0.00,,,0.00,meteohub,2013-01-05 11:52:00,
2013-01-05 06:57:00,31.5,21.7,30.16,West,264,2.0,6.0,67,0.00,,,0.00,meteohub,2013-01-05 11:57:00,
2013-01-05 07:02:00,31.5,21.4,30.17,NW,312,1.0,7.0,66,0.00,,,0.00,meteohub,2013-01-05 12:02:00,
2013-01-05 07:07:00,31.5,21.7,30.17,SW,231,3.0,7.0,67,0.00,,,0.00,meteohub,2013-01-05 12:07:00,
2013-01-05 07:12:00,31.5,21.7,30.17,NW,310,1.0,7.0,67,0.00,,,0.00,meteohub,2013-01-05 12:12:00,
2013-01-05 07:17:00,31.3,21.6,30.17,NW,311,3.0,6.0,67,0.00,,,0.00,meteohub,2013-01-05 12:17:00,
2013-01-05 07:22:00,31.3,21.9,30.17,NW,318,0.0,6.0,68,0.00,,,0.00,meteohub,2013-01-05 12:22:00,
2013-01-05 07:27:00,31.5,21.7,30.17,NW,313,3.0,5.0,67,0.00,,,0.00,meteohub,2013-01-05 12:27:00,
2013-01-05 07:32:00,31.6,21.6,30.18,NW,309,3.0,6.0,66,0.00,,,0.00,meteohub,2013-01-05 12:32:00,
2013-01-05 07:37:00,31.8,21.7,30.18,NW,324,2.0,8.0,66,0.00,,,0.00,meteohub,2013-01-05 12:37:00,
2013-01-05 07:42:00,31.8,21.7,30.19,NNW,337,2.0,8.0,66,0.00,,,0.00,meteohub,2013-01-05 12:42:00,
2013-01-05 07:47:00,32.2,21.7,30.19,NW,305,4.0,8.0,65,0.00,,,0.00,meteohub,2013-01-05 12:47:00,
2013-01-05 07:52:00,32.4,21.9,30.19,WNW,283,6.0,8.0,65,0.00,,,0.00,meteohub,2013-01-05 12:52:00,
2013-01-05 07:57:00,32.5,22.1,30.19,NNW,337,1.0,8.0,65,0.00,,,0.00,meteohub,2013-01-05 12:57:00,
2013-01-05 08:02:00,32.7,21.9,30.19,WNW,301,1.0,7.0,64,0.00,,,0.00,meteohub,2013-01-05 13:02:00,
2013-01-05 08:07:00,33.3,22.5,30.19,WNW,290,0.0,7.0,64,0.00,,,0.00,meteohub,2013-01-05 13:07:00,
2013-01-05 08:12:00,33.4,22.3,30.20,WNW,302,0.0,6.0,63,0.00,,,0.00,meteohub,2013-01-05 13:12:00,
2013-01-05 08:17:00,33.6,22.5,30.20,WNW,296,2.0,6.0,63,0.00,,,0.00,meteohub,2013-01-05 13:17:00,
2013-01-05 08:22:00,33.8,22.5,30.21,NW,322,4.0,6.0,63,0.00,,,0.00,meteohub,2013-01-05 13:22:00,
2013-01-05 08:27:00,33.8,22.5,30.21,NNW,342,1.0,8.0,63,0.00,,,0.00,meteohub,2013-01-05 13:27:00,
2013-01-05 08:32:00,34.0,22.3,30.21,WNW,291,3.0,8.0,62,0.00,,,0.00,meteohub,2013-01-05 13:32:00,
2013-01-05 08:37:00,34.2,22.5,30.21,North,349,6.0,8.0,62,0.00,,,0.00,meteohub,2013-01-05 13:37:00,
2013-01-05 08:42:00,34.3,22.6,30.21,WNW,285,5.0,10.0,62,0.00,,,0.00,meteohub,2013-01-05 13:42:00,
2013-01-05 08:47:00,34.5,22.5,30.21,WNW,284,3.0,10.0,61,0.00,,,0.00,meteohub,2013-01-05 13:47:00,
2013-01-05 08:52:00,34.9,22.8,30.22,NW,313,2.0,10.0,61,0.00,,,0.00,meteohub,2013-01-05 13:52:00,
2013-01-05 08:57:00,35.1,23.0,30.23,WNW,285,3.0,9.0,61,0.00,,,0.00,meteohub,2013-01-05 13:57:00,
2013-01-05 09:02:00,35.2,22.8,30.22,WNW,301,9.0,9.0,60,0.00,,,0.00,meteohub,2013-01-05 14:02:00,
2013-01-05 09:07:00,35.6,23.5,30.22,NW,324,1.0,13.0,61,0.00,,,0.00,meteohub,2013-01-05 14:07:00,
2013-01-05 09:12:00,36.0,23.9,30.23,WNW,303,5.0,13.0,61,0.00,,,0.00,meteohub,2013-01-05 14:12:00,
2013-01-05 09:17:00,36.1,23.5,30.23,NW,314,4.0,12.0,60,0.00,,,0.00,meteohub,2013-01-05 14:17:00,
2013-01-05 09:22:00,36.3,23.7,30.23,NW,325,4.0,13.0,60,0.00,,,0.00,meteohub,2013-01-05 14:22:00,
2013-01-05 09:27:00,36.7,23.7,30.23,NNW,332,6.0,13.0,59,0.00,,,0.00,meteohub,2013-01-05 14:27:00,
2013-01-05 09:32:00,36.9,23.9,30.24,NW,308,2.0,9.0,59,0.00,,,0.00,meteohub,2013-01-05 14:32:00,
2013-01-05 09:37:00,37.0,24.1,30.23,NW,314,6.0,12.0,59,0.00,,,0.00,meteohub,2013-01-05 14:37:00,
2013-01-05 09:42:00,37.0,24.4,30.24,NW,324,6.0,12.0,60,0.00,,,0.00,meteohub,2013-01-05 14:42:00,
2013-01-05 09:47:00,37.6,24.6,30.24,SW,219,3.0,12.0,59,0.00,,,0.00,meteohub,2013-01-05 14:47:00,
2013-01-05 09:52:00,37.8,24.8,30.24,West,264,4.0,13.0,59,0.00,,,0.00,meteohub,2013-01-05 14:52:00,
2013-01-05 09:57:00,37.9,25.7,30.24,NW,304,3.0,13.0,61,0.00,,,0.00,meteohub,2013-01-05 14:57:00,
2013-01-05 10:02:00,37.6,25.7,30.24,NW,306,2.0,12.0,62,0.00,,,0.00,meteohub,2013-01-05 15:02:00,
2013-01-05 10:07:00,37.0,25.7,30.24,WNW,303,6.0,9.0,63,0.00,,,0.00,meteohub,2013-01-05 15:07:00,
2013-01-05 10:12:00,37.0,26.1,30.24,NW,324,1.0,9.0,64,0.00,,,0.00,meteohub,2013-01-05 15:12:00,
2013-01-05 10:17:00,37.2,25.3,30.24,WNW,297,3.0,9.0,62,0.00,,,0.00,meteohub,2013-01-05 15:17:00,
2013-01-05 10:22:00,37.2,25.7,30.24,WNW,295,3.0,8.0,63,0.00,,,0.00,meteohub,2013-01-05 15:22:00,
2013-01-05 10:27:00,37.4,25.9,30.24,WNW,284,2.0,7.0,63,0.00,,,0.00,meteohub,2013-01-05 15:27:00,
2013-01-05 10:32:00,37.6,25.7,30.24,NW,310,3.0,9.0,62,0.00,,,0.00,meteohub,2013-01-05 15:32:00,
2013-01-05 10:37:00,37.9,25.7,30.24,WSW,253,3.0,9.0,61,0.00,,,0.00,meteohub,2013-01-05 15:37:00,
2013-01-05 10:42:00,38.1,25.9,30.24,West,274,2.0,8.0,61,0.00,,,0.00,meteohub,2013-01-05 15:42:00,
2013-01-05 10:47:00,38.5,25.9,30.24,West,259,1.0,8.0,60,0.00,,,0.00,meteohub,2013-01-05 15:47:00,
2013-01-05 10:52:00,38.5,25.9,30.24,NW,313,3.0,9.0,60,0.00,,,0.00,meteohub,2013-01-05 15:52:00,
2013-01-05 10:57:00,38.7,26.1,30.24,NNW,347,2.0,9.0,60,0.00,,,0.00,meteohub,2013-01-05 15:57:00,
2013-01-05 11:02:00,38.8,26.1,30.23,NW,322,6.0,9.0,60,0.00,,,0.00,meteohub,2013-01-05 16:02:00,
2013-01-05 11:07:00,38.8,26.1,30.24,West,276,2.0,9.0,60,0.00,,,0.00,meteohub,2013-01-05 16:07:00,
2013-01-05 11:12:00,39.0,26.2,30.23,WNW,298,2.0,9.0,60,0.00,,,0.00,meteohub,2013-01-05 16:12:00,
2013-01-05 11:17:00,40.3,25.0,30.23,NNW,332,9.0,9.0,54,0.00,,,0.00,meteohub,2013-01-05 16:17:00,
2013-01-05 11:22:00,41.4,25.0,30.23,NNW,347,4.0,14.0,52,0.00,,,0.00,meteohub,2013-01-05 16:22:00,
2013-01-05 11:27:00,41.7,25.3,30.22,NW,326,4.0,14.0,52,0.00,,,0.00,meteohub,2013-01-05 16:27:00,
2013-01-05 11:32:00,42.3,25.3,30.22,NNW,327,9.0,14.0,51,0.00,,,0.00,meteohub,2013-01-05 16:32:00,
2013-01-05 11:37:00,41.9,24.6,30.23,NNW,338,7.0,16.0,50,0.00,,,0.00,meteohub,2013-01-05 16:37:00,
2013-01-05 11:42:00,42.1,24.8,30.23,WNW,297,7.0,16.0,50,0.00,,,0.00,meteohub,2013-01-05 16:42:00,
2013-01-05 11:47:00,41.5,24.8,30.23,NW,315,11.0,16.0,51,0.00,,,0.00,meteohub,2013-01-05 16:47:00,
2013-01-05 11:52:00,42.1,24.8,30.23,NNW,332,6.0,16.0,50,0.00,,,0.00,meteohub,2013-01-05 16:52:00,
2013-01-05 11:57:00,42.1,24.8,30.23,NW,306,8.0,16.0,50,0.00,,,0.00,meteohub,2013-01-05 16:57:00,
2013-01-05 12:02:00,41.7,24.4,30.24,NNW,342,8.0,15.0,50,0.00,,,0.00,meteohub,2013-01-05 17:02:00,
2013-01-05 12:07:00,41.4,24.6,30.24,NNW,339,11.0,19.0,51,0.00,,,0.00,meteohub,2013-01-05 17:07:00,
2013-01-05 12:12:00,41.5,25.2,30.23,NW,305,7.0,19.0,52,0.00,,,0.00,meteohub,2013-01-05 17:12:00,
2013-01-05 12:17:00,41.7,25.0,30.23,WNW,291,16.0,19.0,51,0.00,,,0.00,meteohub,2013-01-05 17:17:00,
2013-01-05 12:21:00,41.7,25.3,30.22,WNW,294,8.0,18.0,52,0.00,,,0.00,meteohub,2013-01-05 17:21:00,
2013-01-05 12:26:00,41.5,24.8,30.22,WNW,299,5.0,18.0,51,0.00,,,0.00,meteohub,2013-01-05 17:26:00,
2013-01-05 12:31:00,41.5,24.8,30.22,NW,320,9.0,18.0,51,0.00,,,0.00,meteohub,2013-01-05 17:31:00,
2013-01-05 12:37:00,41.5,24.8,30.21,NW,321,6.0,15.0,51,0.00,,,0.00,meteohub,2013-01-05 17:37:00,
2013-01-05 12:42:00,42.1,25.3,30.21,WNW,302,4.0,15.0,51,0.00,,,0.00,meteohub,2013-01-05 17:42:00,
2013-01-05 12:47:00,42.4,25.5,30.21,North,4,4.0,14.0,51,0.00,,,0.00,meteohub,2013-01-05 17:47:00,
2013-01-05 12:52:00,42.1,25.3,30.21,NW,306,6.0,16.0,51,0.00,,,0.00,meteohub,2013-01-05 17:52:00,
2013-01-05 12:57:00,42.3,25.0,30.21,NW,316,5.0,16.0,50,0.00,,,0.00,meteohub,2013-01-05 17:57:00,
2013-01-05 13:02:00,42.1,25.3,30.21,NNW,332,5.0,16.0,51,0.00,,,0.00,meteohub,2013-01-05 18:02:00,
2013-01-05 13:07:00,42.3,25.3,30.21,North,354,13.0,14.0,51,0.00,,,0.00,meteohub,2013-01-05 18:07:00,
2013-01-05 13:12:00,42.3,25.3,30.20,NW,320,13.0,14.0,51,0.00,,,0.00,meteohub,2013-01-05 18:12:00,
2013-01-05 13:17:00,42.6,26.2,30.21,NW,305,5.0,14.0,52,0.00,,,0.00,meteohub,2013-01-05 18:17:00,
2013-01-05 13:22:00,42.6,25.7,30.21,NW,326,8.0,13.0,51,0.00,,,0.00,meteohub,2013-01-05 18:22:00,
2013-01-05 13:27:00,42.4,25.5,30.21,NW,324,10.0,13.0,51,0.00,,,0.00,meteohub,2013-01-05 18:27:00,
2013-01-05 13:32:00,42.4,25.5,30.22,NW,315,7.0,13.0,51,0.00,,,0.00,meteohub,2013-01-05 18:32:00,
2013-01-05 13:37:00,42.4,25.5,30.22,WNW,296,9.0,13.0,51,0.00,,,0.00,meteohub,2013-01-05 18:37:00,
2013-01-05 13:42:00,42.6,25.3,30.22,NW,317,7.0,13.0,50,0.00,,,0.00,meteohub,2013-01-05 18:42:00,
2013-01-05 13:47:00,43.0,26.1,30.22,NNW,330,8.0,10.0,51,0.00,,,0.00,meteohub,2013-01-05 18:47:00,
2013-01-05 13:52:00,42.6,25.7,30.22,NW,324,8.0,14.0,51,0.00,,,0.00,meteohub,2013-01-05 18:52:00,
2013-01-05 13:57:00,42.4,25.5,30.22,NNW,330,7.0,14.0,51,0.00,,,0.00,meteohub,2013-01-05 18:57:00,
2013-01-05 14:02:00,42.8,25.9,30.22,NW,319,7.0,14.0,51,0.00,,,0.00,meteohub,2013-01-05 19:02:00,
2013-01-05 14:07:00,42.6,25.3,30.22,NNW,341,5.0,12.0,50,0.00,,,0.00,meteohub,2013-01-05 19:07:00,
2013-01-05 14:12:00,42.8,25.5,30.22,NW,315,4.0,11.0,50,0.00,,,0.00,meteohub,2013-01-05 19:12:00,
2013-01-05 14:17:00,43.0,25.7,30.22,NE,35,2.0,11.0,50,0.00,,,0.00,meteohub,2013-01-05 19:17:00,
2013-01-05 14:22:00,42.8,25.0,30.23,NW,306,7.0,11.0,49,0.00,,,0.00,meteohub,2013-01-05 19:22:00,
2013-01-05 14:27:00,42.6,25.3,30.23,NE,43,5.0,11.0,50,0.00,,,0.00,meteohub,2013-01-05 19:27:00,
2013-01-05 14:32:00,42.6,25.3,30.23,WNW,293,7.0,9.0,50,0.00,,,0.00,meteohub,2013-01-05 19:32:00,
2013-01-05 14:37:00,42.6,25.3,30.23,NW,307,5.0,9.0,50,0.00,,,0.00,meteohub,2013-01-05 19:37:00,
2013-01-05 14:42:00,42.6,25.3,30.23,NNW,339,4.0,8.0,50,0.00,,,0.00,meteohub,2013-01-05 19:42:00,
2013-01-05 14:47:00,42.4,25.5,30.23,North,8,4.0,8.0,51,0.00,,,0.00,meteohub,2013-01-05 19:47:00,
2013-01-05 14:52:00,42.6,25.3,30.23,NNW,342,6.0,8.0,50,0.00,,,0.00,meteohub,2013-01-05 19:52:00,
2013-01-05 14:57:00,42.6,25.7,30.23,North,4,4.0,8.0,51,0.00,,,0.00,meteohub,2013-01-05 19:57:00,
2013-01-05 15:02:00,42.6,25.3,30.23,NW,322,6.0,8.0,50,0.00,,,0.00,meteohub,2013-01-05 20:02:00,
2013-01-05 15:07:00,42.6,25.3,30.23,NW,316,5.0,9.0,50,0.00,,,0.00,meteohub,2013-01-05 20:07:00,
2013-01-05 15:12:00,42.6,25.3,30.22,North,9,4.0,9.0,50,0.00,,,0.00,meteohub,2013-01-05 20:12:00,
2013-01-05 15:17:00,42.8,25.5,30.22,NW,320,0.0,9.0,50,0.00,,,0.00,meteohub,2013-01-05 20:17:00,
2013-01-05 15:22:00,43.0,25.7,30.23,NW,306,3.0,9.0,50,0.00,,,0.00,meteohub,2013-01-05 20:22:00,
2013-01-05 15:27:00,42.6,25.3,30.23,NW,320,4.0,6.0,50,0.00,,,0.00,meteohub,2013-01-05 20:27:00,
2013-01-05 15:32:00,42.4,25.2,30.24,NNW,327,4.0,8.0,50,0.00,,,0.00,meteohub,2013-01-05 20:32:00,
2013-01-05 15:37:00,42.3,25.3,30.23,NNW,345,3.0,8.0,51,0.00,,,0.00,meteohub,2013-01-05 20:37:00,
2013-01-05 15:42:00,42.1,25.3,30.23,NNW,341,2.0,9.0,51,0.00,,,0.00,meteohub,2013-01-05 20:42:00,
2013-01-05 15:47:00,42.1,24.8,30.23,NW,314,1.0,9.0,50,0.00,,,0.00,meteohub,2013-01-05 20:47:00,
2013-01-05 15:52:00,41.9,25.2,30.23,NNW,341,2.0,6.0,51,0.00,,,0.00,meteohub,2013-01-05 20:52:00,
2013-01-05 15:57:00,41.5,25.2,30.23,NNW,331,1.0,5.0,52,0.00,,,0.00,meteohub,2013-01-05 20:57:00,
2013-01-05 16:02:00,41.4,25.5,30.23,North,349,3.0,5.0,53,0.00,,,0.00,meteohub,2013-01-05 21:02:00,
2013-01-05 16:07:00,41.2,25.3,30.24,North,354,1.0,5.0,53,0.00,,,0.00,meteohub,2013-01-05 21:07:00,
2013-01-05 16:12:00,40.8,25.0,30.24,NW,324,0.0,4.0,53,0.00,,,0.00,meteohub,2013-01-05 21:12:00,
2013-01-05 16:17:00,40.6,25.3,30.24,NNE,13,1.0,4.0,54,0.00,,,0.00,meteohub,2013-01-05 21:17:00,
2013-01-05 16:22:00,40.1,25.2,30.24,NNW,343,2.0,3.0,55,0.00,,,0.00,meteohub,2013-01-05 21:22:00,
2013-01-05 16:27:00,39.4,25.0,30.25,NNW,343,0.0,3.0,56,0.00,,,0.00,meteohub,2013-01-05 21:27:00,
2013-01-05 16:32:00,38.8,25.7,30.25,NNW,343,0.0,3.0,59,0.00,,,0.00,meteohub,2013-01-05 21:32:00,
2013-01-05 16:37:00,38.5,26.2,30.24,NNW,343,0.0,3.0,61,0.00,,,0.00,meteohub,2013-01-05 21:37:00,
2013-01-05 16:42:00,37.6,25.0,30.24,NNW,343,0.0,1.0,60,0.00,,,0.00,meteohub,2013-01-05 21:42:00,
2013-01-05 16:47:00,36.9,25.5,30.25,NNW,343,0.0,0.0,63,0.00,,,0.00,meteohub,2013-01-05 21:47:00,
2013-01-05 16:52:00,36.1,25.5,30.25,NNW,343,0.0,0.0,65,0.00,,,0.00,meteohub,2013-01-05 21:52:00,
2013-01-05 16:57:00,35.6,25.3,30.25,NNW,343,0.0,0.0,66,0.00,,,0.00,meteohub,2013-01-05 21:57:00,
2013-01-05 17:02:00,35.1,25.2,30.25,NNW,343,0.0,0.0,67,0.00,,,0.00,meteohub,2013-01-05 22:02:00,
2013-01-05 17:07:00,34.5,25.0,30.25,NNW,343,0.0,0.0,68,0.00,,,0.00,meteohub,2013-01-05 22:07:00,
2013-01-05 17:12:00,33.8,24.4,30.25,NNW,343,0.0,0.0,68,0.00,,,0.00,meteohub,2013-01-05 22:12:00,
2013-01-05 17:17:00,33.4,24.4,30.26,NNW,343,0.0,0.0,69,0.00,,,0.00,meteohub,2013-01-05 22:17:00,
2013-01-05 17:22:00,33.1,24.6,30.26,NNW,343,0.0,0.0,71,0.00,,,0.00,meteohub,2013-01-05 22:22:00,
2013-01-05 17:27:00,32.5,24.4,30.25,NNW,343,0.0,0.0,72,0.00,,,0.00,meteohub,2013-01-05 22:27:00,
2013-01-05 17:32:00,32.2,24.8,30.26,NNW,343,0.0,0.0,74,0.00,,,0.00,meteohub,2013-01-05 22:32:00,
2013-01-05 17:37:00,31.6,24.6,30.26,NNW,343,0.0,0.0,75,0.00,,,0.00,meteohub,2013-01-05 22:37:00,
2013-01-05 17:42:00,31.3,24.6,30.26,NNW,343,0.0,0.0,76,0.00,,,0.00,meteohub,2013-01-05 22:42:00,
2013-01-05 17:47:00,30.9,24.3,30.27,NNW,343,0.0,0.0,76,0.00,,,0.00,meteohub,2013-01-05 22:47:00,
2013-01-05 17:52:00,30.7,24.1,30.27,NNW,343,0.0,0.0,76,0.00,,,0.00,meteohub,2013-01-05 22:52:00,
2013-01-05 17:57:00,30.4,24.1,30.27,NNW,343,0.0,0.0,77,0.00,,,0.00,meteohub,2013-01-05 22:57:00,
2013-01-05 18:02:00,30.0,24.1,30.27,NNW,343,0.0,0.0,78,0.00,,,0.00,meteohub,2013-01-05 23:02:00,
2013-01-05 18:07:00,29.8,23.5,30.27,NNW,343,0.0,0.0,77,0.00,,,0.00,meteohub,2013-01-05 23:07:00,
2013-01-05 18:12:00,29.7,23.9,30.27,NNW,343,2.0,3.0,79,0.00,,,0.00,meteohub,2013-01-05 23:12:00,
2013-01-05 18:17:00,29.5,23.7,30.28,NNW,343,0.0,3.0,79,0.00,,,0.00,meteohub,2013-01-05 23:17:00,
2013-01-05 18:22:00,29.5,24.1,30.28,NNW,343,0.0,3.0,80,0.00,,,0.00,meteohub,2013-01-05 23:22:00,
2013-01-05 18:27:00,29.5,24.1,30.28,NNW,343,0.0,3.0,80,0.00,,,0.00,meteohub,2013-01-05 23:27:00,
2013-01-05 18:32:00,29.3,23.9,30.28,NNW,343,0.0,0.0,80,0.00,,,0.00,meteohub,2013-01-05 23:32:00,
2013-01-05 18:37:00,29.1,23.7,30.28,NNW,343,2.0,3.0,80,0.00,,,0.00,meteohub,2013-01-05 23:37:00,
2013-01-05 18:42:00,28.9,23.5,30.29,NNW,343,0.0,3.0,80,0.00,,,0.00,meteohub,2013-01-05 23:42:00,
2013-01-05 18:47:00,28.9,23.5,30.28,NNW,343,0.0,3.0,80,0.00,,,0.00,meteohub,2013-01-05 23:47:00,
2013-01-05 18:52:00,28.9,23.5,30.29,NNW,343,0.0,3.0,80,0.00,,,0.00,meteohub,2013-01-05 23:52:00,
2013-01-05 18:57:00,28.8,23.4,30.28,NNW,343,2.0,2.0,80,0.00,,,0.00,meteohub,2013-01-05 23:57:00,
2013-01-05 19:02:00,28.8,23.7,30.28,NNW,343,0.0,3.0,81,0.00,,,0.00,meteohub,2013-01-06 00:02:00,
2013-01-05 19:07:00,28.6,23.5,30.29,NNW,343,0.0,3.0,81,0.00,,,0.00,meteohub,2013-01-06 00:07:00,
2013-01-05 19:12:00,28.6,23.5,30.28,NNW,343,0.0,3.0,81,0.00,,,0.00,meteohub,2013-01-06 00:12:00,
2013-01-05 19:17:00,28.2,23.4,30.29,NNW,343,1.0,2.0,82,0.00,,,0.00,meteohub,2013-01-06 00:17:00,
2013-01-05 19:22:00,28.2,23.4,30.29,NNW,343,0.0,2.0,82,0.00,,,0.00,meteohub,2013-01-06 00:22:00,
2013-01-05 19:27:00,28.0,23.2,30.27,NNW,343,2.0,2.0,82,0.00,,,0.00,meteohub,2013-01-06 00:27:00,
2013-01-05 19:32:00,27.9,22.8,30.28,NNW,343,0.0,2.0,81,0.00,,,0.00,meteohub,2013-01-06 00:32:00,
2013-01-05 19:37:00,27.9,23.0,30.28,NNW,335,5.0,5.0,82,0.00,,,0.00,meteohub,2013-01-06 00:37:00,
2013-01-05 19:42:00,27.7,22.8,30.28,NNW,343,0.0,5.0,82,0.00,,,0.00,meteohub,2013-01-06 00:42:00,
2013-01-05 19:47:00,27.9,23.0,30.28,ESE,114,0.0,5.0,82,0.00,,,0.00,meteohub,2013-01-06 00:47:00,
2013-01-05 19:52:00,27.9,23.4,30.27,NE,45,2.0,5.0,83,0.00,,,0.00,meteohub,2013-01-06 00:52:00,
2013-01-05 19:57:00,27.9,23.4,30.28,NE,45,0.0,3.0,83,0.00,,,0.00,meteohub,2013-01-06 00:57:00,
2013-01-05 20:02:00,27.9,23.4,30.28,NE,45,0.0,2.0,83,0.00,,,0.00,meteohub,2013-01-06 01:02:00,
2013-01-05 20:07:00,27.7,23.5,30.28,NNW,346,2.0,3.0,84,0.00,,,0.00,meteohub,2013-01-06 01:07:00,
2013-01-05 20:12:00,27.7,23.5,30.28,NNW,346,0.0,3.0,84,0.00,,,0.00,meteohub,2013-01-06 01:12:00,
2013-01-05 20:17:00,27.3,22.8,30.28,NNW,346,1.0,3.0,83,0.00,,,0.00,meteohub,2013-01-06 01:17:00,
2013-01-05 20:22:00,27.3,23.2,30.28,NNW,346,0.0,2.0,84,0.00,,,0.00,meteohub,2013-01-06 01:22:00,
2013-01-05 20:27:00,27.1,23.0,30.27,NNW,346,0.0,2.0,84,0.00,,,0.00,meteohub,2013-01-06 01:27:00,
2013-01-05 20:32:00,27.0,22.3,30.27,NNW,346,0.0,2.0,82,0.00,,,0.00,meteohub,2013-01-06 01:32:00,
2013-01-05 20:37:00,26.8,22.3,30.27,NNW,346,0.0,2.0,83,0.00,,,0.00,meteohub,2013-01-06 01:37:00,
2013-01-05 20:42:00,26.8,22.6,30.27,NNW,346,0.0,1.0,84,0.00,,,0.00,meteohub,2013-01-06 01:42:00,
2013-01-05 20:47:00,26.6,22.5,30.27,NNW,346,2.0,0.0,84,0.00,,,0.00,meteohub,2013-01-06 01:47:00,
2013-01-05 20:52:00,26.6,22.6,30.27,NNW,346,0.0,3.0,85,0.00,,,0.00,meteohub,2013-01-06 01:52:00,
2013-01-05 20:57:00,26.6,22.6,30.27,NNW,346,0.0,3.0,85,0.00,,,0.00,meteohub,2013-01-06 01:57:00,
2013-01-05 21:02:00,26.6,22.6,30.25,NNW,346,1.0,3.0,85,0.00,,,0.00,meteohub,2013-01-06 02:02:00,
2013-01-05 21:07:00,26.6,23.0,30.26,NNW,346,1.0,3.0,86,0.00,,,0.00,meteohub,2013-01-06 02:07:00,
2013-01-05 21:12:00,26.6,23.0,30.26,NNW,346,0.0,3.0,86,0.00,,,0.00,meteohub,2013-01-06 02:12:00,
2013-01-05 21:17:00,26.4,22.8,30.25,NNW,346,0.0,3.0,86,0.00,,,0.00,meteohub,2013-01-06 02:17:00,
2013-01-05 21:22:00,26.6,23.0,30.25,NNW,346,1.0,3.0,86,0.00,,,0.00,meteohub,2013-01-06 02:22:00,
2013-01-05 21:27:00,26.6,23.0,30.25,NNW,346,1.0,2.0,86,0.00,,,0.00,meteohub,2013-01-06 02:27:00,
2013-01-05 21:32:00,26.4,22.8,30.26,NNW,346,0.0,2.0,86,0.00,,,0.00,meteohub,2013-01-06 02:32:00,
2013-01-05 21:37:00,26.4,22.8,30.25,NNW,346,0.0,2.0,86,0.00,,,0.00,meteohub,2013-01-06 02:37:00,
2013-01-05 21:42:00,26.4,22.8,30.25,NNW,346,0.0,2.0,86,0.00,,,0.00,meteohub,2013-01-06 02:42:00,
2013-01-05 21:47:00,26.4,23.0,30.25,NNW,346,0.0,0.0,87,0.00,,,0.00,meteohub,2013-01-06 02:47:00,
2013-01-05 21:52:00,26.4,22.8,30.26,NNW,346,0.0,0.0,86,0.00,,,0.00,meteohub,2013-01-06 02:52:00,
2013-01-05 21:57:00,26.2,22.8,30.25,NNW,346,1.0,2.0,87,0.00,,,0.00,meteohub,2013-01-06 02:57:00,
2013-01-05 22:02:00,26.2,22.8,30.25,NNW,346,0.0,2.0,87,0.00,,,0.00,meteohub,2013-01-06 03:02:00,
2013-01-05 22:07:00,26.2,22.8,30.26,NNW,346,0.0,2.0,87,0.00,,,0.00,meteohub,2013-01-06 03:07:00,
2013-01-05 22:12:00,26.2,22.8,30.27,NNW,346,2.0,2.0,87,0.00,,,0.00,meteohub,2013-01-06 03:12:00,
2013-01-05 22:17:00,26.2,22.8,30.26,NNW,346,1.0,2.0,87,0.00,,,0.00,meteohub,2013-01-06 03:17:00,
2013-01-05 22:22:00,26.2,22.8,30.25,NNW,346,0.0,2.0,87,0.00,,,0.00,meteohub,2013-01-06 03:22:00,
2013-01-05 22:27:00,26.1,22.5,30.25,NNW,346,0.0,2.0,86,0.00,,,0.00,meteohub,2013-01-06 03:27:00,
2013-01-05 22:32:00,25.9,22.3,30.25,NNW,346,0.0,1.0,86,0.00,,,0.00,meteohub,2013-01-06 03:32:00,
2013-01-05 22:37:00,26.1,22.6,30.25,NNW,346,0.0,0.0,87,0.00,,,0.00,meteohub,2013-01-06 03:37:00,
2013-01-05 22:42:00,26.1,22.6,30.25,NNW,346,0.0,0.0,87,0.00,,,0.00,meteohub,2013-01-06 03:42:00,
2013-01-05 22:47:00,26.2,23.2,30.25,NNW,346,0.0,0.0,88,0.00,,,0.00,meteohub,2013-01-06 03:47:00,
2013-01-05 22:52:00,26.2,23.2,30.24,NNW,346,0.0,0.0,88,0.00,,,0.00,meteohub,2013-01-06 03:52:00,
2013-01-05 22:57:00,26.4,23.4,30.25,NNW,346,0.0,0.0,88,0.00,,,0.00,meteohub,2013-01-06 03:57:00,
2013-01-05 23:02:00,26.6,23.5,30.24,NNW,346,0.0,0.0,88,0.00,,,0.00,meteohub,2013-01-06 04:02:00,
2013-01-05 23:07:00,26.6,23.5,30.23,NNW,346,0.0,0.0,88,0.00,,,0.00,meteohub,2013-01-06 04:07:00,
2013-01-05 23:12:00,26.6,23.2,30.23,NNW,346,0.0,0.0,87,0.00,,,0.00,meteohub,2013-01-06 04:12:00,
2013-01-05 23:17:00,26.6,23.2,30.23,NNW,345,0.0,0.0,87,0.00,,,0.00,meteohub,2013-01-06 04:17:00,
2013-01-05 23:22:00,26.4,23.0,30.23,NNW,346,0.0,0.0,87,0.00,,,0.00,meteohub,2013-01-06 04:22:00,
2013-01-05 23:27:00,26.8,23.4,30.23,NNW,346,0.0,0.0,87,0.00,,,0.00,meteohub,2013-01-06 04:27:00,
2013-01-05 23:32:00,27.0,23.9,30.23,NNW,346,0.0,0.0,88,0.00,,,0.00,meteohub,2013-01-06 04:32:00,
2013-01-05 23:37:00,27.1,23.7,30.22,NNW,346,0.0,0.0,87,0.00,,,0.00,meteohub,2013-01-06 04:37:00,
2013-01-05 23:42:00,27.1,24.1,30.23,NNW,346,0.0,0.0,88,0.00,,,0.00,meteohub,2013-01-06 04:42:00,
2013-01-05 23:47:00,27.3,24.3,30.23,NNW,346,1.0,2.0,88,0.00,,,0.00,meteohub,2013-01-06 04:47:00,
2013-01-05 23:52:00,27.7,24.3,30.23,NNW,346,0.0,2.0,87,0.00,,,0.00,meteohub,2013-01-06 04:52:00,
2013-01-05 23:57:00,27.7,24.3,30.22,NNW,346,0.0,2.0,87,0.00,,,0.00,meteohub,2013-01-06 04:57:00,